Lumberton, NJ

8:06 AM EDT on September 30, 2016 (GMT -0400)
South Jersey Regional

Weather History for KVAY - April, 2013

Change the Weather History Date:

Monday, April 29, 2013

  Actual Average (KWRI) Record (KWRI)
Temperature  
Mean Temperature 54 °F -  
Max Temperature 57 °F 67 °F 80 °F (2003)
Min Temperature 51 °F 44 °F 33 °F (1998)
Degree Days  
Heating Degree Days 11    
Growing Degree Days 4 (Base 50)    
Moisture  
Dew Point 52 °F    
Average Humidity 92    
Maximum Humidity 100    
Minimum Humidity 66    
Precipitation  
Precipitation 0.43 in - - ()
Sea Level Pressure  
Sea Level Pressure 30.17 in    
Wind  
Wind Speed 4 mph (ESE)    
Max Wind Speed 9 mph    
Max Gust Speed -    
Visibility 6 miles    
Events Rain    
Averages and records for this station are not official NWS values.
T = Trace of Precipitation, MM = Missing Value Source: NWS Daily Summary

Daily Weather History Graph

Daily Weather History Graph

Search for Another Location

Airport or City:

Trip Planner

Search our weather history database for the weather conditions in past years. The results will help you decide how hot, cold, wet, or windy it might be!

Date:

Astronomy

Apr. 29, 2013 Rise Set
Actual Time 6:01 AM EDT 7:52 PM EDT
Civil Twilight 5:32 AM EDT 8:21 PM EDT
Nautical Twilight 4:57 AM EDT 8:56 PM EDT
Astronomical Twilight 4:19 AM EDT 9:35 PM EDT
Moon No Moon Rise 9:19 AM EDT (4/29)
Length of Visible Light 14h 48m
Length of Day
13h 50m
Waning Gibbous, 80% of the Moon is Illuminated
Apr 29
Waning Gibbous
May 2
Last Quarter
May 9
New
May 18
First Quarter
May 25
Full

Hourly Weather History & Observations

Time (EDT) Temp. Dew Point Humidity Pressure Visibility Wind Dir Wind Speed Gust Speed Precip Events Conditions
12:54 AM 53.1 °F 42.1 °F 66% 30.23 in 10.0 mi East 3.5 mph - N/A   Overcast
1:54 AM 53.1 °F 44.1 °F 71% 30.21 in 10.0 mi Calm Calm - 0.00 in Rain Light Rain
2:54 AM 53.1 °F 46.9 °F 80% 30.19 in 10.0 mi Calm Calm - 0.00 in Rain Light Rain
3:54 AM 52.0 °F 48.9 °F 89% 30.20 in 8.0 mi SE 3.5 mph - 0.02 in Rain Light Rain
4:54 AM 52.0 °F 48.9 °F 89% 30.19 in 7.0 mi ESE 3.5 mph - 0.03 in Rain Light Rain
5:54 AM 52.0 °F 50.0 °F 93% 30.19 in 5.0 mi SE 3.5 mph - 0.03 in Rain Light Rain
6:30 AM 51.8 °F 50.0 °F 94% 30.20 in 4.0 mi SE 4.6 mph - 0.02 in Rain Light Rain
6:54 AM 52.0 °F 51.1 °F 97% 30.20 in 3.0 mi Variable 3.5 mph - 0.05 in Rain Light Rain
7:18 AM 51.8 °F 51.8 °F 100% 30.20 in 4.0 mi SE 4.6 mph - 0.03 in Rain Light Rain
7:54 AM 53.1 °F 51.1 °F 93% 30.20 in 5.0 mi SE 5.8 mph - 0.06 in Rain Light Rain
8:54 AM 54.0 °F 52.0 °F 93% 30.20 in 5.0 mi ESE 5.8 mph - 0.02 in Rain Light Rain
9:54 AM 54.0 °F 51.1 °F 90% 30.19 in 6.0 mi ESE 6.9 mph - 0.02 in Rain Light Rain
10:54 AM 54.0 °F 52.0 °F 93% 30.18 in 5.0 mi ESE 9.2 mph - 0.02 in Rain Light Rain
11:34 AM 53.6 °F 51.8 °F 94% 30.18 in 1.8 mi SE 9.2 mph - 0.01 in Rain Light Rain
11:49 AM 53.6 °F 51.8 °F 94% 30.18 in 2.0 mi ESE 9.2 mph - 0.01 in Rain Light Rain
11:54 AM 54.0 °F 52.0 °F 93% 30.18 in 2.5 mi ESE 8.1 mph - 0.01 in Rain Light Rain
12:12 PM 53.6 °F 53.6 °F 100% 30.18 in 1.5 mi ESE 5.8 mph - 0.02 in Rain Light Rain
12:54 PM 55.0 °F 54.0 °F 96% 30.17 in 1.5 mi ESE 6.9 mph - 0.05 in Rain Light Rain
1:14 PM 55.4 °F 53.6 °F 94% 30.17 in 2.0 mi SE 4.6 mph - 0.01 in Rain Light Rain
1:20 PM 55.4 °F 53.6 °F 94% 30.16 in 1.8 mi ESE 6.9 mph - 0.01 in Rain Light Rain
1:30 PM 55.4 °F 53.6 °F 94% 30.16 in 3.0 mi ESE 5.8 mph - 0.01 in Rain Light Rain
1:54 PM 55.9 °F 54.0 °F 93% 30.17 in 6.0 mi SE 5.8 mph - 0.02 in   Overcast
2:54 PM 57.0 °F 54.0 °F 89% 30.16 in 9.0 mi ESE 6.9 mph - 0.00 in   Overcast
3:54 PM 57.0 °F 55.0 °F 93% 30.15 in 5.0 mi SE 5.8 mph - 0.01 in Rain Light Rain
4:07 PM 57.2 °F 55.4 °F 94% 30.14 in 5.0 mi ESE 5.8 mph - 0.00 in Rain Light Rain
4:54 PM 57.0 °F 55.0 °F 93% 30.14 in 7.0 mi ESE 5.8 mph - 0.01 in Rain Light Rain
5:10 PM 57.2 °F 55.4 °F 94% 30.15 in 8.0 mi Calm Calm - 0.00 in Rain Light Rain
5:26 PM 57.2 °F 55.4 °F 94% 30.15 in 7.0 mi ESE 4.6 mph - 0.01 in Rain Light Rain
5:35 PM 57.2 °F 53.6 °F 88% 30.15 in 5.0 mi ESE 3.5 mph - 0.01 in Rain Light Rain
5:46 PM 55.4 °F 53.6 °F 94% 30.15 in 2.0 mi ESE 5.8 mph - 0.02 in Rain Rain
5:54 PM 55.9 °F 54.0 °F 93% 30.15 in 1.8 mi SE 6.9 mph - 0.03 in Rain Light Rain
6:00 PM 55.4 °F 53.6 °F 94% 30.15 in 3.0 mi ESE 4.6 mph - 0.01 in Rain Light Rain
6:11 PM 55.4 °F 53.6 °F 94% 30.15 in 5.0 mi ESE 4.6 mph - 0.01 in Rain Light Rain
6:34 PM 55.4 °F 53.6 °F 94% 30.15 in 6.0 mi ESE 3.5 mph - 0.02 in Rain Light Rain
6:49 PM 55.4 °F 53.6 °F 94% 30.15 in 8.0 mi Variable 4.6 mph - 0.02 in Rain Light Rain
6:54 PM 55.9 °F 54.0 °F 93% 30.16 in 8.0 mi Variable 5.8 mph - 0.02 in Rain Light Rain
7:34 PM 55.4 °F 53.6 °F 94% 30.16 in 2.5 mi ESE 4.6 mph - 0.01 in Rain Light Rain
7:47 PM 55.4 °F 53.6 °F 94% 30.16 in 5.0 mi Variable 4.6 mph - 0.02 in Rain Light Rain
7:54 PM 55.0 °F 53.1 °F 93% 30.16 in 7.0 mi SE 3.5 mph - 0.02 in Rain Light Rain
8:11 PM 55.4 °F 53.6 °F 94% 30.17 in 10.0 mi ESE 4.6 mph - 0.00 in   Overcast
8:21 PM 55.4 °F 53.6 °F 94% 30.17 in 10.0 mi Variable 4.6 mph - 0.00 in   Overcast
8:54 PM 55.0 °F 52.0 °F 89% 30.18 in 10.0 mi Variable 4.6 mph - 0.00 in Rain Light Rain
9:54 PM 54.0 °F 52.0 °F 93% 30.19 in 10.0 mi ESE 5.8 mph - 0.01 in   Overcast
10:54 PM 54.0 °F 52.0 °F 93% 30.19 in 8.0 mi ESE 4.6 mph - N/A   Overcast
11:54 PM 54.0 °F 52.0 °F 93% 30.19 in 10.0 mi East 6.9 mph - N/A   Overcast